[[{"header":{"parameterUnit":"m.s-1","parameterCategory":1,"la1":30.2992,"la2":30.254,"lo1":-89.0895,"lo2":-89.0443,"dy":0.0025,"dx":0.0025,"nx":19,"ny":19,"refTime":"2026-05-03T03:00:00:Z","depth":0,"parameterNumber":2,"parameterNumberName":"U-component_of_WINDS"},"data":[0,0,0,-1.4419,-1.442,-1.4451,-1.4451,-1.4499,-1.45,0,0,0,0,0,0,0,0,0,0,0,-1.4412,-1.4413,-1.4419,-1.442,-1.4451,-1.4451,-1.4499,-1.45,0,0,0,0,0,0,0,0,0,0,0,-1.4412,-1.4413,-1.4413,-1.442,-1.4451,-1.4451,-1.4499,-1.4473,0,0,0,0,0,0,0,0,0,0,-1.4441,-1.4437,-1.4412,-1.4413,-1.442,-1.4451,-1.4451,-1.4472,-1.4475,-1.4488,0,-1.4498,0,-1.45,-1.4503,-1.4503,0,0,0,-1.4418,-1.4434,-1.4441,-1.4413,-1.442,-1.4451,-1.4437,-1.4473,-1.4477,-1.4492,-1.4499,-1.45,-1.45,-1.4503,-1.4504,-1.4582,-1.4582,0,0,-1.4416,-1.4419,-1.4438,-1.4443,-1.4437,-1.4436,-1.4438,-1.4475,-1.4484,-1.4499,-1.4501,-1.4501,-1.4504,-1.4504,-1.4581,-1.4582,0,0,0,-1.4413,-1.4418,-1.4423,-1.4441,-1.4446,-1.4437,-1.4439,-1.4482,-1.4483,-1.4502,-1.4502,-1.4504,-1.4505,-1.4581,-1.4581,-1.4606,0,0,0,-1.4411,-1.4416,-1.4423,-1.4425,-1.4446,-1.4464,-1.4445,-1.4481,-1.4485,-1.4502,-1.4504,-1.4505,-1.458,-1.4581,-1.4604,-1.4617,0,0,0,-1.4409,-1.4416,-1.4421,-1.4425,-1.4439,-1.4463,-1.4467,-1.4482,-1.4485,-1.4503,-1.4505,-1.458,-1.4581,-1.4603,-1.4614,-1.4639,0,0,0,-1.4408,-1.4442,-1.4422,-1.446,-1.4438,-1.4478,-1.4466,-1.4496,-1.4515,-1.4504,-1.458,-1.4581,-1.4602,-1.4613,-1.4637,-1.466,-1.467,0,0,-1.4452,-1.4447,-1.447,-1.4452,-1.4496,-1.4473,-1.4521,-1.4536,-1.4535,-1.4567,-1.4569,-1.4605,-1.4614,-1.4639,-1.4723,-1.4731,0,0,0,-1.4485,-1.4501,-1.4512,-1.4529,-1.4542,-1.4554,-1.456,-1.4567,-1.4593,-1.4551,-1.462,-1.4626,-1.464,-1.4651,-1.4657,-1.467,-1.4586,-1.4586,-1.4586,-1.4551,-1.4549,-1.4586,-1.4589,-1.4607,-1.4615,-1.463,-1.4639,-1.4631,-1.4648,-1.4657,-1.4708,-1.4721,-1.4726,-1.4739,-1.4669,-1.4669,-1.4669,-1.4669,-1.4615,-1.4638,-1.4629,-1.4662,-1.4661,-1.4689,-1.47,-1.4694,-1.4722,-1.4701,-1.4713,-1.4691,-1.4734,-1.4746,-1.4671,-1.4671,-1.4671,-1.4671,-1.467,-1.4658,-1.4669,-1.4676,-1.4703,-1.4725,-1.4728,-1.4755,-1.4753,-1.4752,-1.4764,-1.4774,-1.4774,-1.4774,-1.4769,-1.4769,-1.477,-1.477,-1.477,-1.477,-1.4699,-1.4706,-1.4729,-1.4747,-1.4759,-1.4776,-1.4787,-1.48,-1.4814,-1.4811,-1.4811,-1.4803,-1.4739,-1.4723,-1.4773,-1.4772,-1.4772,-1.4772,-1.4771,-1.4765,-1.475,-1.4785,-1.4798,-1.482,-1.4843,-1.4842,-1.4869,-1.488,-1.4894,-1.4885,-1.4837,-1.4832,-1.4827,-1.4814,-1.4884,-1.4884,-1.4884,-1.4884,-1.4801,-1.4798,-1.4834,-1.4856,-1.4876,-1.4879,-1.4921,-1.4932,-1.4941,-1.4948,-1.4938,-1.4921,-1.4916,-1.4914,-1.4906,-1.4894,-1.4983,-1.4983,-1.4983,-1.4841,-1.4841,-1.4876,-1.4884,-1.4902,-1.4919,-1.4959,-1.4986,-1.4993,-1.4987,-1.4954,-1.495,-1.4922,-1.4913,-1.4904,-1.4893,-1.4871,0,0]},{"header":{"parameterUnit":"m.s-1","parameterCategory":1,"la1":30.2992,"la2":30.254,"lo1":-89.0895,"lo2":-89.0443,"dy":0.0025,"dx":0.0025,"nx":19,"ny":19,"refTime":"2026-05-03T03:00:00:Z","depth":0,"parameterNumber":3,"parameterNumberName":"V-component_of_WINDS"},"data":[0,0,0,2.7763,2.7762,2.7695,2.7695,2.7601,2.76,0,0,0,0,0,0,0,0,0,0,0,2.7779,2.7778,2.7763,2.7762,2.7695,2.7695,2.7601,2.76,0,0,0,0,0,0,0,0,0,0,0,2.778,2.7779,2.7778,2.7761,2.7696,2.7695,2.7602,2.7654,0,0,0,0,0,0,0,0,0,0,2.772,2.7732,2.7779,2.7778,2.7761,2.7696,2.7695,2.7657,2.7651,2.7628,0,2.7608,0,2.7603,2.7594,2.7593,0,0,0,2.7764,2.7737,2.7722,2.7778,2.776,2.7696,2.7726,2.7654,2.7647,2.762,2.7607,2.7603,2.7601,2.7593,2.7592,2.7455,2.7454,0,0,2.7768,2.7765,2.7727,2.7718,2.773,2.7728,2.7724,2.765,2.7634,2.7606,2.7601,2.76,2.7592,2.7592,2.7456,2.7455,0,0,0,2.7777,2.7767,2.7755,2.7722,2.771,2.7726,2.7721,2.7638,2.7634,2.76,2.7599,2.7592,2.7591,2.7457,2.7455,2.7415,0,0,0,2.7779,2.7772,2.7756,2.7754,2.7712,2.7674,2.7711,2.7639,2.7631,2.7599,2.7592,2.759,2.7457,2.7456,2.7418,2.7395,0,0,0,2.7785,2.7773,2.7763,2.7754,2.7726,2.7675,2.7667,2.7638,2.763,2.7593,2.7589,2.7458,2.7456,2.742,2.74,2.7357,0,0,0,2.779,2.7727,2.7762,2.7692,2.7726,2.7652,2.7668,2.7612,2.7576,2.7591,2.7457,2.7456,2.7421,2.7402,2.736,2.7319,2.7303,0,0,2.7709,2.7718,2.7677,2.7706,2.7624,2.7662,2.7574,2.7543,2.7542,2.7484,2.748,2.7417,2.74,2.7358,2.7216,2.7203,0,0,0,2.765,2.762,2.7599,2.7566,2.7542,2.7519,2.7502,2.7491,2.7442,2.7512,2.7391,2.7381,2.7357,2.7337,2.7326,2.7304,2.7447,2.7447,2.7448,2.753,2.7533,2.7465,2.746,2.7427,2.7411,2.7384,2.7365,2.7377,2.7348,2.733,2.7244,2.7221,2.7213,2.719,2.7311,2.7311,2.7311,2.7311,2.7411,2.7368,2.7387,2.7327,2.733,2.7279,2.7261,2.7271,2.7222,2.7258,2.7236,2.7272,2.7198,2.7178,2.7308,2.7308,2.7308,2.7309,2.7309,2.7331,2.7311,2.73,2.7251,2.7213,2.721,2.7163,2.7168,2.7172,2.715,2.713,2.7131,2.713,2.7141,2.7141,2.7141,2.714,2.714,2.714,2.7251,2.724,2.72,2.717,2.7149,2.7122,2.7106,2.7084,2.7062,2.7068,2.7068,2.7081,2.7192,2.7218,2.7135,2.7136,2.7137,2.7137,2.7137,2.7125,2.7155,2.7094,2.7072,2.7037,2.6998,2.7006,2.6962,2.6945,2.6922,2.694,2.7022,2.703,2.7039,2.706,2.6942,2.6942,2.6942,2.6941,2.7055,2.7061,2.6999,2.6965,2.6932,2.6933,2.6862,2.6849,2.6839,2.6828,2.6847,2.6877,2.6886,2.6888,2.69,2.692,2.6769,2.6768,2.6768,2.6977,2.698,2.6918,2.6912,2.6884,2.686,2.6793,2.6751,2.6747,2.6761,2.682,2.6827,2.6875,2.6892,2.6904,2.6923,2.696,0,0]}]]